{"data":{"norad_id":65528,"epoch":"2026-09-20T21:43:11.524800Z","epoch_age_seconds":76934,"freshness":"FRESH","line1":"1 65528U 25200J   26263.90499450  .00011197  00000+0  34874-3 0  9991","line2":"2 65528  97.2857 330.2944 0001532  92.0533 268.0885 15.33434914 58696","mean_motion":15.33434914,"eccentricity":0.0001532,"inclination_deg":97.2857,"raan_deg":330.2944,"arg_perigee_deg":92.0533,"mean_anomaly_deg":268.0885,"bstar":0.00034874,"rev_number":5869,"period_min":93.906822314599,"perigee_km":464.5247270824,"apogee_km":466.62163988262,"semimajor_km":6843.7101834825,"source":"CELESTRAK","updated_at":"2026-09-21T09:00:35.649154Z"}}